Wind_Speed
20 18 14 6 6 8 10 14 18 10 13 17 15 20 20 19 20 20 14 12 8 13 15 16 16 14 12 13 10 9 10 14 15 13 12 11 10 10 11 12 12 11 11 10
18 18 10 6 5 6 10 14 14 11 17 17 21 25 24 17 16 18 18 17 14 13 22 19 17 15 13 10 9 6 7 10 14 13 15 15 15 13 13 13 12 12 11 9
16 5 9 6 5 6 9 7 16 14 16 19 20 22 18 11 4 7 12 16 17 13 24 22 17 13 12 9 7 7 6 6 13 17 18 17 16 14 13 12 12 12 12 10
6 9 7 5 7 6 8 8 13 13 15 12 19 12 15 12 7 6 4 10 15 17 17 27 22 18 15 11 11 9 7 5 10 18 19 16 17 14 12 12 13 13 13 13
3 5 6 10 9 8 9 11 14 14 14 17 11 7 9 7 6 6 9 9 10 16 18 28 22 20 18 16 15 12 9 8 7 13 17 16 15 14 15 16 17 15 12 14
8 10 13 10 9 11 14 17 17 16 15 6 5 7 7 12 15 9 9 9 8 10 16 30 27 25 23 20 13 13 10 9 6 10 15 14 13 13 15 18 19 15 13 13
4 9 14 15 12 11 14 14 8 4 2 3 11 7 11 9 17 8 12 10 4 3 15 26 30 25 18 13 14 19 12 12 8 7 13 14 12 12 15 18 17 14 12 11
5 3 2 6 12 9 14 9 7 3 2 8 13 7 13 11 16 4 11 11 7 2 13 22 25 21 17 15 10 19 19 14 10 7 11 14 13 12 15 18 18 16 13 12
3 5 4 10 10 5 6 4 4 8 6 4 4 12 12 14 10 8 8 15 10 5 0 18 19 20 19 18 10 11 17 17 11 8 10 15 15 13 14 18 19 17 15 14
8 13 7 4 12 5 8 6 3 7 3 4 5 10 13 19 5 7 8 12 17 9 1 7 18 19 17 15 10 9 17 13 13 11 10 11 14 15 15 18 19 18 17 15
14 10 8 10 6 9 9 6 7 5 4 3 3 6 10 14 10 7 5 7 12 16 3 4 12 15 13 12 10 13 16 14 11 9 9 11 12 15 16 16 18 19 20 16
8 8 12 13 11 12 8 8 9 6 4 5 2 6 7 12 12 8 10 6 9 14 9 3 8 10 12 13 12 11 11 9 10 11 9 10 12 15 18 17 17 18 18 16
6 7 8 8 6 9 7 7 6 5 4 5 3 5 8 10 7 7 11 9 6 9 6 6 7 9 11 12 12 9 9 11 11 11 9 10 12 14 17 19 18 18 18 18
10 13 13 15 10 8 10 12 10 11 9 8 12 13 11 10 8 9 9 11 9 7 1 4 1 7 12 13 14 12 12 12 12 11 9 8 8 11 15 18 19 18 17 17
12 13 15 17 18 20 20 18 18 17 14 11 12 16 12 10 14 10 11 14 15 11 7 7 6 8 11 14 13 10 11 11 10 9 9 8 9 10 13 16 17 16 16 15
19 14 13 16 13 15 19 20 20 19 18 14 17 18 14 13 14 17 17 18 19 13 13 11 7 13 12 15 15 10 8 11 11 10 10 9 9 9 11 13 14 14 14 14
18 16 12 19 13 15 17 18 21 22 20 17 16 13 10 10 15 17 20 18 14 8 8 10 12 12 15 14 14 15 12 11 12 12 13 12 13 12 12 13 13 13 12 10
19 13 11 11 9 10 18 17 18 20 23 20 17 13 9 11 14 20 21 20 20 14 11 9 12 12 17 17 17 17 16 13 14 14 16 16 14 16 15 14 11 10 8 7
3 9 8 6 11 15 9 13 14 17 16 18 17 16 15 15 18 22 23 22 21 22 19 21 17 14 17 15 18 19 20 18 16 16 18 18 16 15 15 13 12 12 12 14
8 7 10 8 5 4 5 15 17 15 15 18 19 20 18 16 13 21 20 21 23 23 21 20 17 16 16 21 20 22 22 21 18 17 18 20 19 18 18 17 16 17 18 18
5 5 10 11 9 7 10 8 11 9 10 14 15 15 15 17 19 18 17 16 18 16 14 16 17 16 16 18 23 21 24 22 21 21 22 23 23 23 22 23 24 21 22 24
5 4 5 6 5 7 9 7 6 9 9 10 11 12 13 14 16 18 19 21 21 20 21 17 13 14 17 15 16 22 25 27 24 25 26 27 27 27 26 27 25 24 24 27
7 9 7 7 6 9 12 15 16 16 16 16 17 18 19 19 20 22 23 23 25 25 23 25 25 20 18 15 16 16 17 24 22 32 31 31 31 31 30 30 30 29 26 27
16 16 17 18 20 22 23 21 20 21 25 26 26 27 28 29 30 31 32 32 31 30 30 30 29 28 25 24 19 17 16 19 25 26 33 35 37 37 35 35 36 34 27 24
19 18 20 25 28 27 26 25 24 28 29 28 28 29 30 32 33 34 34 34 35 34 32 33 33 31 31 28 23 20 19 19 19 23 30 33 34 42 51 41 40 42 37 29
18 13 16 17 15 18 20 20 22 27 28 29 31 31 30 34 37 38 38 36 35 36 35 35 34 32 31 33 25 22 21 22 25 24 23 25 30 34 39 41 43 48 49 47
Wind_Direction
217 229 242 242 249 257 299 312 315 329 330 314 314 315 328 295 279 270 265 274 249 190 171 181 184 192 186 183 182 188 217 224 229 236 230 224 221 216 215 218 203 212 216 214
226 233 232 230 229 269 299 312 330 330 325 316 318 324 329 312 291 277 263 255 253 201 190 182 187 191 187 191 195 192 203 217 223 231 223 216 218 221 212 218 217 208 217 216
224 218 191 195 233 285 302 345 348 318 315 324 332 335 357 7 352 224 250 253 246 234 201 194 199 200 188 171 182 194 204 227 215 213 222 214 225 230 229 221 219 210 214 216
220 210 202 213 234 284 308 330 337 328 317 320 329 320 13 30 38 18 319 262 252 243 223 199 199 207 206 177 189 205 205 225 229 220 218 219 228 231 228 226 207 205 212 221
187 203 227 252 269 291 294 307 315 315 304 318 322 328 345 24 27 15 335 320 293 233 219 199 197 201 214 210 209 208 224 236 233 225 223 223 219 227 226 209 201 202 210 216
232 256 258 257 260 273 286 295 299 303 297 284 317 344 324 5 351 349 13 334 312 234 208 205 208 206 213 218 225 222 236 236 245 222 214 214 219 221 222 204 194 201 207 213
327 229 242 251 263 292 299 287 286 291 279 300 329 318 322 339 351 355 18 15 357 224 199 200 205 208 224 223 235 244 239 237 241 220 207 205 214 216 207 202 197 194 200 204
310 143 85 343 319 280 293 253 238 260 289 324 323 330 341 342 360 18 14 18 18 43 195 205 205 210 214 217 256 230 230 239 233 226 209 209 209 208 202 200 203 206 210 217
270 275 294 315 338 292 297 281 246 234 291 283 313 331 353 353 354 44 32 37 27 350 266 203 203 206 212 230 259 223 202 208 217 215 210 212 218 209 208 204 207 207 211 221
261 280 274 292 339 312 249 262 173 210 246 286 315 318 317 345 42 42 43 50 37 17 29 200 207 209 222 229 225 216 216 206 204 208 205 212 218 215 214 216 215 213 216 224
273 265 268 310 290 301 279 212 219 194 175 250 294 316 343 353 7 30 44 27 23 30 10 169 195 199 210 211 218 198 208 211 211 204 216 216 218 219 219 222 224 226 222 222
243 244 267 285 294 278 238 242 225 220 213 214 235 278 330 331 338 351 349 1 25 26 35 188 181 203 206 204 191 198 203 214 221 222 219 215 221 220 221 219 227 231 229 228
276 250 266 274 256 219 205 184 186 199 177 206 229 279 331 327 333 329 336 336 5 14 32 43 242 226 207 185 184 202 214 213 218 228 234 231 225 223 222 218 221 229 232 231
285 269 254 256 264 249 240 231 243 237 237 241 241 273 303 298 297 295 304 302 320 331 351 63 107 202 206 207 199 202 210 217 216 221 223 227 230 224 218 216 218 223 225 229
265 263 260 262 264 265 256 243 244 231 243 249 279 277 275 257 266 281 291 284 281 286 236 270 245 212 208 216 206 206 216 215 221 226 215 208 211 208 208 211 217 221 225 227
258 270 258 259 267 263 252 235 234 240 241 252 268 268 266 256 281 292 295 302 306 291 265 264 279 207 207 201 203 215 219 229 225 224 217 232 236 217 209 207 209 209 215 222
271 257 262 259 257 254 265 241 234 236 244 257 255 250 253 272 291 296 289 295 303 303 249 269 286 232 209 209 209 204 211 223 229 223 233 238 229 223 212 204 205 216 219 217
256 244 229 264 258 253 256 249 243 244 245 244 233 221 229 280 295 299 295 289 287 282 272 276 290 265 223 221 227 225 219 221 225 223 226 237 233 222 219 216 207 198 206 228
253 238 235 235 239 268 265 228 217 215 219 222 222 233 259 278 291 289 281 282 280 285 282 285 297 270 251 236 231 239 234 230 232 222 219 227 229 220 218 210 211 229 246 261
246 242 215 228 240 264 239 241 244 242 254 248 253 257 258 262 264 272 270 269 274 279 287 289 294 286 266 244 239 243 238 234 230 229 222 219 219 214 216 218 230 248 261 269
251 251 227 237 243 267 255 247 252 240 254 249 251 255 260 260 261 262 270 274 275 278 283 288 288 287 285 263 244 245 232 238 231 228 224 222 221 220 224 234 241 250 261 269
244 249 230 234 234 251 248 250 246 258 266 267 274 277 275 271 272 277 283 287 283 281 283 288 290 292 284 277 269 255 230 236 237 235 232 225 224 227 232 241 247 253 263 272
265 232 236 232 239 268 274 283 279 274 271 269 270 272 271 269 269 273 277 280 286 287 288 282 284 280 280 281 268 258 247 238 253 238 237 235 231 231 236 242 249 255 260 267
266 264 263 271 270 270 274 275 276 277 279 281 278 276 274 271 271 270 271 275 277 280 282 278 278 278 273 278 276 261 257 251 251 255 244 243 244 239 238 246 250 252 248 264
268 269 272 275 276 282 276 274 275 274 275 275 273 274 274 275 275 274 270 265 266 268 271 273 272 272 275 274 273 272 268 258 252 250 247 250 251 239 249 246 253 259 260 258
286 285 272 276 276 277 276 277 280 281 281 278 279 278 275 272 274 275 275 274 272 269 266 266 269 268 266 269 271 269 265 259 252 249 250 252 256 259 251 254 255 260 251 264
Height
3187 3190 3191 3192 3192 3192 3192 3190 3188 3185 3184 3180 3179 3175 3173 3172 3170 3171 3173 3174 3176 3178 3180 3181 3183 3184 3185 3185 3186 3187 3189 3190 3191 3192 3194 3196 3198 3200 3202 3204 3205 3206 3208 3210
3187 3187 3190 3190 3191 3191 3190 3188 3186 3184 3181 3179 3175 3171 3168 3166 3164 3165 3168 3170 3172 3174 3176 3179 3181 3182 3183 3185 3186 3186 3187 3187 3188 3189 3191 3193 3195 3198 3200 3201 3202 3204 3207 3209
3185 3187 3187 3189 3189 3189 3188 3186 3184 3183 3179 3177 3173 3167 3165 3163 3161 3161 3162 3164 3166 3169 3172 3174 3177 3179 3181 3182 3184 3184 3185 3185 3186 3187 3190 3191 3193 3196 3198 3199 3201 3203 3205 3207
3184 3185 3186 3187 3187 3188 3185 3184 3183 3181 3179 3178 3175 3171 3166 3163 3162 3161 3160 3160 3160 3163 3166 3170 3172 3175 3179 3181 3182 3183 3183 3183 3183 3184 3186 3189 3191 3194 3196 3198 3199 3201 3203 3205
3185 3184 3184 3185 3185 3185 3184 3182 3181 3179 3178 3177 3175 3173 3167 3164 3162 3161 3159 3157 3156 3157 3161 3165 3168 3172 3177 3178 3180 3181 3182 3182 3181 3181 3184 3187 3189 3191 3192 3194 3196 3199 3201 3203
3181 3181 3181 3182 3182 3182 3181 3180 3178 3177 3176 3174 3173 3174 3166 3164 3162 3159 3158 3156 3154 3153 3156 3161 3164 3168 3173 3176 3179 3180 3181 3181 3180 3179 3182 3185 3187 3189 3190 3192 3194 3197 3199 3202
3178 3178 3179 3180 3181 3180 3178 3178 3177 3175 3173 3172 3171 3170 3166 3164 3161 3158 3157 3155 3154 3153 3154 3157 3161 3167 3171 3174 3176 3177 3177 3179 3179 3178 3180 3183 3186 3187 3188 3191 3193 3196 3198 3200
3177 3177 3177 3177 3177 3176 3174 3175 3175 3174 3171 3172 3170 3169 3165 3162 3159 3158 3157 3155 3154 3153 3154 3156 3161 3165 3168 3170 3171 3171 3173 3177 3177 3177 3178 3181 3183 3185 3187 3189 3192 3194 3196 3198
3176 3174 3174 3174 3174 3174 3171 3171 3172 3174 3172 3172 3169 3168 3164 3162 3159 3158 3158 3156 3154 3153 3153 3155 3159 3161 3164 3166 3169 3170 3171 3173 3174 3175 3176 3178 3181 3183 3185 3187 3190 3192 3194 3196
3175 3173 3171 3172 3171 3171 3170 3170 3171 3171 3171 3170 3168 3167 3165 3162 3161 3160 3159 3157 3156 3153 3152 3153 3155 3158 3161 3164 3167 3167 3170 3171 3172 3173 3174 3175 3178 3180 3183 3185 3188 3190 3191 3193
3171 3172 3170 3170 3169 3168 3168 3167 3167 3168 3168 3167 3167 3166 3164 3162 3161 3161 3159 3157 3156 3154 3154 3153 3154 3156 3159 3162 3164 3165 3167 3168 3170 3171 3172 3173 3174 3176 3179 3182 3185 3187 3188 3190
3169 3168 3166 3167 3166 3166 3165 3164 3164 3165 3166 3165 3166 3166 3163 3162 3161 3160 3159 3157 3156 3155 3156 3157 3157 3156 3157 3159 3162 3163 3165 3167 3168 3169 3169 3170 3172 3173 3175 3178 3181 3184 3186 3188
3166 3165 3164 3164 3165 3163 3163 3162 3162 3162 3163 3163 3165 3163 3162 3161 3160 3158 3156 3156 3156 3155 3155 3155 3157 3156 3156 3158 3160 3161 3163 3164 3165 3166 3167 3168 3169 3170 3172 3175 3177 3180 3182 3184
3165 3163 3163 3162 3161 3161 3161 3160 3160 3161 3161 3160 3160 3160 3160 3159 3157 3155 3154 3154 3154 3155 3154 3154 3154 3156 3156 3157 3158 3160 3161 3163 3163 3164 3165 3166 3166 3167 3169 3171 3174 3176 3179 3181
3161 3159 3158 3157 3157 3156 3156 3156 3156 3156 3157 3158 3158 3157 3158 3156 3153 3152 3151 3150 3150 3151 3152 3152 3153 3153 3153 3156 3157 3159 3160 3161 3163 3163 3163 3163 3163 3164 3165 3168 3171 3173 3176 3178
3155 3154 3153 3152 3152 3151 3150 3151 3151 3153 3153 3153 3154 3154 3155 3151 3150 3149 3148 3148 3146 3146 3146 3148 3148 3149 3151 3152 3154 3156 3157 3159 3160 3161 3162 3162 3163 3163 3165 3166 3169 3171 3173 3176
3149 3148 3149 3147 3148 3147 3146 3145 3146 3147 3147 3148 3149 3151 3151 3149 3147 3146 3145 3145 3144 3143 3143 3144 3145 3146 3148 3149 3151 3151 3153 3154 3155 3156 3159 3159 3160 3162 3164 3165 3167 3170 3172 3174
3142 3144 3145 3144 3145 3142 3138 3139 3140 3140 3142 3143 3144 3145 3146 3145 3144 3142 3141 3140 3139 3140 3141 3141 3142 3143 3145 3146 3148 3149 3149 3150 3151 3153 3155 3157 3159 3161 3163 3165 3167 3170 3172 3173
3139 3140 3141 3141 3139 3136 3134 3134 3135 3135 3137 3138 3139 3140 3141 3140 3138 3138 3136 3135 3135 3135 3136 3137 3138 3139 3140 3143 3145 3146 3146 3146 3147 3149 3151 3153 3156 3158 3161 3164 3167 3169 3170 3171
3137 3136 3138 3136 3136 3132 3130 3130 3131 3132 3133 3132 3133 3134 3135 3136 3135 3133 3131 3131 3130 3130 3130 3130 3132 3133 3135 3137 3139 3142 3143 3143 3144 3147 3149 3150 3152 3155 3158 3161 3163 3165 3166 3167
3134 3133 3133 3133 3133 3130 3127 3128 3128 3130 3132 3127 3127 3129 3130 3131 3130 3128 3127 3126 3125 3125 3126 3125 3126 3127 3129 3131 3132 3134 3138 3140 3141 3142 3144 3147 3149 3151 3154 3157 3158 3160 3161 3162
3131 3131 3130 3129 3129 3128 3125 3126 3128 3126 3124 3124 3124 3124 3125 3125 3125 3123 3122 3120 3119 3120 3120 3121 3122 3122 3122 3124 3125 3128 3131 3134 3136 3137 3139 3141 3143 3145 3148 3151 3153 3154 3155 3156
3128 3127 3127 3128 3125 3123 3123 3123 3122 3122 3121 3121 3121 3120 3120 3120 3120 3118 3117 3116 3114 3113 3114 3114 3115 3117 3118 3118 3120 3122 3123 3126 3128 3130 3133 3136 3137 3139 3141 3143 3146 3146 3147 3149
3121 3121 3121 3121 3119 3118 3117 3117 3116 3116 3115 3114 3114 3113 3113 3113 3112 3111 3109 3108 3107 3106 3106 3106 3107 3108 3110 3112 3113 3115 3116 3118 3122 3124 3126 3128 3131 3133 3134 3135 3136 3138 3138 3140
3117 3115 3114 3112 3112 3110 3110 3110 3110 3107 3107 3107 3106 3105 3104 3102 3101 3100 3099 3099 3097 3097 3097 3096 3097 3099 3100 3102 3104 3107 3108 3109 3112 3115 3117 3118 3120 3121 3126 3127 3129 3132 3132 3131
3109 3108 3108 3105 3106 3104 3103 3103 3102 3100 3099 3098 3096 3094 3094 3092 3090 3089 3087 3087 3087 3086 3087 3087 3087 3088 3090 3091 3094 3095 3098 3100 3102 3105 3106 3109 3110 3111 3113 3115 3117 3119 3119 3124